Погода Комсомольск-на-Амуре

Погода Комсомольск-на-Амуре : погода сейчас, прогноз погоды и архив. Всё, что Вы хотите узнать о погоде Комсомольск-на-Амуре!

Хотите узнать прогноз погоды Комсомольск-на-Амуре? Тогда Вам сюда: Погода Комсомольск-на-Амуре

Поиск расширенной информации на нашем сайте:

Другие новости

Новости СМИ2

Главная страница сайта

Новости сайта

03.07.2017

Напоминаем, что на нашем специализированном сайте Метеоцентр.Азия вы можете получить высокодетализированные автоматические прогнозы погоды по пунктам России, СНГ и мира в авиационном формате (включающие направление и скорость ветра, видимость, явления погоды, количество и форму облачности, нижнюю и верхнюю границу облачности).

Рекомендуем: Типографии московский печатный двор.

Погода Комсомольск-на-Амуре - сегодня

Время (UTC), дата Ветер
(°,м/с) 
Видим.   Явления Облачность Т
(°С)
Тd
(°С)
f(%) Тe
(°С)
Pmin
(гПа)
dP
(гПа)
Po
(мм)
O2
(г/м3)
Тmin Tmax R s Состояние
почвы
03 20.07.17 180 (Ю) 20000 м    9/8 600 м средняя 
[Cu Sc|Ac lent]
+23.8 +11.1 45 +27  998.7  0.2  747  275           
06 20.07.17 150 (ЮВ) 20000 м    9/9 600 м 
[Sc]
+25.4 +11.3 41 +28  999.2  0.5  748  274           
09 20.07.17 040 (СВ) 20000 м    10/9 600 м средняя, верхняя 
[Sc|Ac cast|Ci fib]
+23.5 +13.5 53 +30  1001  1.8  749  275    +25.7       
12 20.07.17 тихо ()   20000 м    10/10 600 м 
[Sc]
+20.3 +16.9 81 +32  1002.1  1.1  750  277           
15 20.07.17 020 (С) 20000 м    4/0 средняя 
[Ac trans]
+17.9 +14.2 79 +26  1002.4  1.1  750  281           
18 20.07.17 010 (С) 20000 м    9/5 600 м средняя 
[Sc|Ac trans]
+15.9 +12.2 79 +21  1002.5  750  283           
21 20.07.17 020 (С) 20000 м    8/6 600 м средняя, верхняя 
[Sc|Ac trans|Cs]
+17 +12.2 73 +22  1003  0.5  750  282  +14.8        сухая 
00 21.07.17 350 (С) 20000 м    8/3 600 м средняя 
[Sc|Ac trans]
+22.6 +13.5 56 +29  1002.7  -0.2  750  277           
03 21.07.17 010 (С) 20000 м    8/3 600 м средняя 
[Cu med, cong|Ac trans]
+24.7 +11.6 44 +28  1002.9  0.1  750  275           
06 21.07.17 340 (С) 20000 м    6/4 600 м кучево-дожд., средняя, верхняя 
[Cb cap|Ac trans|Ci sp]
+26 +11.9 41 +30  1002.1  -0.8  750  274           
09 21.07.17 300 (СЗ) 6-11{16}  20000 м  слаб. ливневой дождь  9/9 600 м кучево-дожд. 
[Cb cap]
+19.9 +13.8 68 +27  1004.5  2.3  752  279    +26.4       
12 21.07.17 340 (С) 4{11}  20000 м  {ливн. осадки}  10/10 600 м кучево-дожд. 
[Cb cap]
+18.7 +13 69 +24  1006.1  1.6  753  281           
15 21.07.17 340 (С) 20000 м    8/5 600 м средняя, верхняя 
[Sc|Ac trans|Ci fib]
+18.2 +12 67 +23  1007.3  1.6  754  282           
18 21.07.17 210 (ЮЗ) 20000 м    3/1 600 м верхняя 
[Sc|Cc]
+13 +11.9 93 +18  1008.6  1.3  755  288           
21 21.07.17 тихо ()   20000 м    3/0 средняя, верхняя 
[Ac lent|Cc]
+16.6 +11.4 71 +19  1010  1.4  756  285  +12.2    0.6    влажная 
00 22.07.17 160 (Ю) 20000 м    ясно 
+21.2 +13.2 60 +27  1010.5  0.6  756  280           
03 22.07.17 170 (Ю) 20000 м    3/3 300 м 
[Sc]
+25.2 +13.6 49 +31  1009.6  -0.9  755  276           
06 22.07.17 170 (Ю) 20000 м    4/3 600 м верхняя 
[Sc|Ci]
+25.8 +11.1 40 +28  1008.1  -0.9  754  276           
09 22.07.17 180 (Ю) 20000 м    10/5 600 м средняя, верхняя 
[Sc|As op|Ci]
+23 +15.7 63 +33  1007.3  -0.8  754  277    +26.4       
12 22.07.17 170 (Ю) 20000 м    10/8 600 м средняя 
[Sc|As op]
+20.3 +16 76 +31  1007.6  0.3  754  279           
15 22.07.17 170 (Ю) 20000 м    10/8 600 м средняя 
[Sc|As op]
+19.1 +16.4 84 +31  1006.9  -0.7  753  280           
18 22.07.17 150 (ЮВ) 20000 м    10/10 600 м 
[Sc]
+17 +15.6 91 +28  1005.6  -1.4  752  282           
21 22.07.17 170 (Ю) 20000 м    10/10 600 м 
[Sc]
+18.1 +15.3 84 +28  1005.2  -0.3  752  281  +17        сухая 
00 23.07.17 170 (Ю) 20000 м  в посл. час ливневой дождь  10/4 600 м кучево-дожд., средняя 
[Cb cap|As op]
+18.3 +15.9 86 +29  1004.5  -0.7  752  280           
03 23.07.17 170 (Ю) 20000 м  {ливн. осадки}  10/5 600 м кучево-дожд., средняя 
[Cb cap|As op]
+18.8 +16.3 85 +30  1004  -0.6  751  280           
Время (UTC), дата Ветер
(°,м/с) 
Видим.   Явления Облачность Т
(°С)
Тd
(°С)
f(%) Тe
(°С)
Pmin
(гПа)
dP
(гПа)
Po
(мм)
O2
(г/м3)
Тmin Tmax R s Состояние
почвы

Для получения пояснительной информации подведите курсор к названию столбца.

ПОГОДА Комсомольск-на-Амуре - архив

Всё, что Вы хотите узнать о погоде Комсомольск-на-Амуре - удобно и подробно!

Выберите нужную дату (начиная с 1 января 2015* года) и нажмите кнопку "Найти".
Будут отображены архивные сводки погоды по пункту Комсомольск-на-Амуре, начиная с указанной даты.


Отображать данные в формате CSV (для использования в таблицах Excel)


Внимание! Наш архив погоды предназначен исключительно для личного некоммерческого использования в познавательных целях. Если Вам необходимы официальные справки о состоянии погоды (для производственных, юридических, коммерческих и т.п. целей), обращайтесь в органы Росгидромета.

*Примечание: данная дата относится к архиву по метеостанциям СССР (Россия, СНГ, Балтия).
Архив по метеостанциям Зарубежной Европы и Азии (кроме Китая) хранится 10 дней, по другим регионам земного шара (Китай, Африка, Америка, Австралия, Океания) - 1 день.

Комсомольск-на-Амуре - район местоположения метеостанции


Название, широта, долгота, высота метеостанции:
Комсомольск-на-Амуре 50.6°ш. 137°д. 19 м над ур. моря [Российская Федерация]

Дополнительная информация

В oтличие oт бoльшинства пoгoдных сайтoв мы публикуем пoдрoбную метеoинфoрмацию в детальнoм прoфессиoнальнoм фoрмате.

Характеристики температуры и влажнoсти вoздуха измеряются на высoте 2 м в тени вдали oт зданий и деревьев.
Скoрoсть ветра измеряется на высoте 10 м (на урoвне рoста челoвека скoрoсть ветра ниже в 1.5-2 раза). Если метеoстанция нахoдится в гoрoде или в лесу, тo скoрoсть ветра занижена на 2-4 м/с пo сравнению с oткрытым местoм. Скoрoсть ветра над акватoриями крупных рек и oзёр, а также на вершинах хoлмoв на 2-5 м/с выше, чем в oбычных услoвиях.
Атмoсфернoе давление в разных тoчках местнoсти мoжет значительнo oтличаться oт давления на метеoстанции, в зависимoсти oт услoвий рельефа (при пoдъёме на 10 м давление пoнижается примернo на 1 мм рт.ст.).